Time,TemperatureF,DewpointF,PressureIn,WindDirection,WindDirectionDegrees,WindSpeedMPH,WindSpeedGustMPH,Humidity,HourlyPrecipIn,Conditions,Clouds,dailyrainin,SoftwareType,DateUTC
2013-01-28 00:00:00,45.2,36.0,29.91,ESE,122,2.0,7.0,70,0.00,,,0.00,Wunderground v.1.15,2013-01-28 07:00:00,
2013-01-28 00:10:00,45.0,36.2,29.91,ESE,119,2.0,3.0,71,0.00,,,0.00,Wunderground v.1.15,2013-01-28 07:10:00,
2013-01-28 00:20:00,44.8,36.0,29.91,ESE,122,2.0,3.0,71,0.00,,,0.00,Wunderground v.1.15,2013-01-28 07:20:00,
2013-01-28 00:30:00,44.5,35.7,29.91,ESE,123,3.0,5.0,71,0.00,,,0.00,Wunderground v.1.15,2013-01-28 07:30:00,
2013-01-28 00:40:00,44.0,35.2,29.91,ESE,123,3.0,3.0,71,0.00,,,0.00,Wunderground v.1.15,2013-01-28 07:40:00,
2013-01-28 00:50:00,43.7,35.3,29.91,ESE,123,1.0,1.0,72,0.00,,,0.00,Wunderground v.1.15,2013-01-28 07:50:00,
2013-01-28 01:00:00,43.2,34.8,29.91,ESE,123,0.0,0.0,72,0.00,,,0.00,Wunderground v.1.15,2013-01-28 08:00:00,
2013-01-28 01:10:00,42.7,34.6,29.91,ESE,123,1.0,8.0,73,0.00,,,0.00,Wunderground v.1.15,2013-01-28 08:10:00,
2013-01-28 01:20:00,42.7,35.0,29.90,ESE,123,2.0,8.0,74,0.00,,,0.00,Wunderground v.1.15,2013-01-28 08:20:00,
2013-01-28 01:30:00,43.1,35.0,29.90,ESE,123,0.0,8.0,73,0.00,,,0.00,Wunderground v.1.15,2013-01-28 08:30:00,
2013-01-28 01:40:00,43.1,35.0,29.90,ESE,123,0.0,8.0,73,0.00,,,0.00,Wunderground v.1.15,2013-01-28 08:40:00,
2013-01-28 01:50:00,42.7,34.6,29.90,ESE,123,0.0,8.0,73,0.00,,,0.00,Wunderground v.1.15,2013-01-28 08:50:00,
2013-01-28 02:00:00,42.6,34.5,29.89,ESE,123,0.0,8.0,73,0.00,,,0.00,Wunderground v.1.15,2013-01-28 09:00:00,
2013-01-28 02:10:00,42.4,34.7,29.89,ESE,123,0.0,8.0,74,0.00,,,0.00,Wunderground v.1.15,2013-01-28 09:10:00,
2013-01-28 02:20:00,42.4,34.7,29.89,ESE,123,2.0,8.0,74,0.00,,,0.00,Wunderground v.1.15,2013-01-28 09:20:00,
2013-01-28 02:30:00,42.9,34.8,29.89,ESE,123,2.0,8.0,73,0.00,,,0.00,Wunderground v.1.15,2013-01-28 09:30:00,
2013-01-28 02:40:00,43.2,34.8,29.89,ESE,123,0.0,8.0,72,0.00,,,0.00,Wunderground v.1.15,2013-01-28 09:40:00,
2013-01-28 02:50:00,43.3,34.5,29.89,ESE,114,0.0,8.0,71,0.00,,,0.00,Wunderground v.1.15,2013-01-28 09:50:00,
2013-01-28 03:00:00,43.1,34.3,29.89,ESE,123,1.0,1.0,71,0.00,,,0.00,Wunderground v.1.15,2013-01-28 10:00:00,
2013-01-28 03:10:00,42.8,34.4,29.88,ESE,123,0.0,8.0,72,0.00,,,0.00,Wunderground v.1.15,2013-01-28 10:10:00,
2013-01-28 03:20:00,42.5,34.1,29.88,ESE,123,0.0,8.0,72,0.00,,,0.00,Wunderground v.1.15,2013-01-28 10:20:00,
2013-01-28 03:30:00,42.3,34.3,29.88,ESE,123,0.0,8.0,73,0.00,,,0.00,Wunderground v.1.15,2013-01-28 10:30:00,
2013-01-28 03:40:00,42.0,34.3,29.88,ESE,123,0.0,8.0,74,0.00,,,0.00,Wunderground v.1.15,2013-01-28 10:40:00,
2013-01-28 03:50:00,41.9,34.6,29.87,ESE,123,0.0,8.0,75,0.00,,,0.00,Wunderground v.1.15,2013-01-28 10:50:00,
2013-01-28 04:00:00,41.8,34.8,29.87,ESE,123,0.0,8.0,76,0.00,,,0.00,Wunderground v.1.15,2013-01-28 11:00:00,
2013-01-28 04:10:00,41.8,35.1,29.87,ESE,123,1.0,1.0,77,0.00,,,0.00,Wunderground v.1.15,2013-01-28 11:10:00,
2013-01-28 04:20:00,41.6,35.2,29.87,ESE,123,1.0,1.0,78,0.00,,,0.00,Wunderground v.1.15,2013-01-28 11:20:00,
2013-01-28 04:30:00,41.4,35.4,29.86,ESE,123,0.0,8.0,79,0.00,,,0.00,Wunderground v.1.15,2013-01-28 11:30:00,
2013-01-28 04:40:00,41.1,35.4,29.86,ESE,123,0.0,8.0,80,0.00,,,0.00,Wunderground v.1.15,2013-01-28 11:40:00,
2013-01-28 04:50:00,40.9,35.5,29.85,ESE,123,0.0,8.0,81,0.00,,,0.00,Wunderground v.1.15,2013-01-28 11:50:00,
2013-01-28 05:00:00,40.8,35.7,29.85,ESE,123,0.0,8.0,82,0.00,,,0.00,Wunderground v.1.15,2013-01-28 12:00:00,
2013-01-28 05:10:00,40.6,35.5,29.85,ESE,123,0.0,8.0,82,0.00,,,0.00,Wunderground v.1.15,2013-01-28 12:10:00,
2013-01-28 05:20:00,40.5,35.7,29.85,ESE,123,0.0,8.0,83,0.00,,,0.00,Wunderground v.1.15,2013-01-28 12:20:00,
2013-01-28 05:30:00,40.4,35.9,29.85,ESE,123,1.0,8.0,84,0.00,,,0.00,Wunderground v.1.15,2013-01-28 12:30:00,
2013-01-28 05:40:00,40.9,36.1,29.85,ESE,123,2.0,8.0,83,0.00,,,0.00,Wunderground v.1.15,2013-01-28 12:40:00,
2013-01-28 05:50:00,41.2,36.4,29.85,ESE,123,3.0,3.0,83,0.00,,,0.00,Wunderground v.1.15,2013-01-28 12:50:00,
2013-01-28 06:00:00,41.4,36.9,29.85,ESE,123,2.0,8.0,84,0.00,,,0.00,Wunderground v.1.15,2013-01-28 13:00:00,
2013-01-28 06:10:00,41.5,37.0,29.85,ESE,123,2.0,8.0,84,0.00,,,0.00,Wunderground v.1.15,2013-01-28 13:10:00,
2013-01-28 06:20:00,41.5,36.7,29.85,SE,133,2.0,8.0,83,0.00,,,0.00,Wunderground v.1.15,2013-01-28 13:20:00,
2013-01-28 06:30:00,41.5,36.7,29.85,ESE,109,4.0,8.0,83,0.00,,,0.00,Wunderground v.1.15,2013-01-28 13:30:00,
2013-01-28 06:40:00,41.5,36.7,29.84,ESE,118,5.0,5.0,83,0.00,,,0.00,Wunderground v.1.15,2013-01-28 13:40:00,
2013-01-28 06:50:00,41.9,36.8,29.84,SE,138,4.0,8.0,82,0.00,,,0.00,Wunderground v.1.15,2013-01-28 13:50:00,
2013-01-28 07:00:00,42.2,36.5,29.84,SE,138,5.0,5.0,80,0.00,,,0.00,Wunderground v.1.15,2013-01-28 14:00:00,
2013-01-28 07:10:00,42.5,36.8,29.84,SE,145,5.0,5.0,80,0.00,,,0.00,Wunderground v.1.15,2013-01-28 14:10:00,
2013-01-28 07:20:00,42.4,36.7,29.85,South,189,3.0,3.0,80,0.00,,,0.00,Wunderground v.1.15,2013-01-28 14:20:00,
2013-01-28 07:30:00,42.6,36.5,29.85,South,178,4.0,4.0,79,0.00,,,0.00,Wunderground v.1.15,2013-01-28 14:30:00,
2013-01-28 07:40:00,43.2,36.8,29.84,SSE,166,6.0,8.0,78,0.00,,,0.00,Wunderground v.1.15,2013-01-28 14:40:00,
2013-01-28 07:50:00,43.6,36.9,29.84,SE,146,8.0,8.0,77,0.00,,,0.00,Wunderground v.1.15,2013-01-28 14:50:00,
2013-01-28 08:00:00,44.1,37.0,29.84,SSE,167,8.0,8.0,76,0.00,,,0.00,Wunderground v.1.15,2013-01-28 15:00:00,
2013-01-28 08:10:00,45.0,37.6,29.84,South,182,8.0,11.0,75,0.00,,,0.00,Wunderground v.1.15,2013-01-28 15:10:00,
2013-01-28 08:20:00,45.7,37.5,29.84,South,182,10.0,16.0,73,0.00,,,0.00,Wunderground v.1.15,2013-01-28 15:20:00,
2013-01-28 08:30:00,46.1,37.6,29.84,South,182,10.0,10.0,72,0.00,,,0.00,Wunderground v.1.15,2013-01-28 15:30:00,
2013-01-28 08:40:00,46.3,37.8,29.84,South,180,11.0,11.0,72,0.00,,,0.00,Wunderground v.1.15,2013-01-28 15:40:00,
2013-01-28 08:50:00,46.5,37.6,29.84,SSE,166,11.0,11.0,71,0.00,,,0.00,Wunderground v.1.15,2013-01-28 15:50:00,
2013-01-28 09:00:00,47.0,37.7,29.83,SE,133,11.0,11.0,70,0.00,,,0.00,Wunderground v.1.15,2013-01-28 16:00:00,
2013-01-28 09:10:00,47.3,37.6,29.83,SSE,165,13.0,18.0,69,0.00,,,0.00,Wunderground v.1.15,2013-01-28 16:10:00,
2013-01-28 09:20:00,47.4,37.7,29.83,SSE,165,13.0,13.0,69,0.00,,,0.00,Wunderground v.1.15,2013-01-28 16:20:00,
2013-01-28 09:30:00,47.1,37.8,29.83,SSW,194,14.0,14.0,70,0.00,,,0.00,Wunderground v.1.15,2013-01-28 16:30:00,
2013-01-28 09:40:00,48.1,38.4,29.83,South,176,12.0,13.0,69,0.00,,,0.00,Wunderground v.1.15,2013-01-28 16:40:00,
2013-01-28 09:50:00,48.5,38.4,29.83,South,169,13.0,14.0,68,0.00,,,0.00,Wunderground v.1.15,2013-01-28 16:50:00,
2013-01-28 10:00:00,48.8,38.3,29.83,SE,144,12.0,12.0,67,0.00,,,0.00,Wunderground v.1.15,2013-01-28 17:00:00,
2013-01-28 10:10:00,49.6,38.3,29.83,SSE,167,10.0,13.0,65,0.00,,,0.00,Wunderground v.1.15,2013-01-28 17:10:00,
2013-01-28 10:20:00,49.9,38.2,29.83,SSE,165,11.0,12.0,64,0.00,,,0.00,Wunderground v.1.15,2013-01-28 17:20:00,
2013-01-28 10:30:00,50.3,38.6,29.83,SE,125,9.0,9.0,64,0.00,,,0.00,Wunderground v.1.15,2013-01-28 17:30:00,
2013-01-28 10:40:00,50.7,38.6,29.82,SE,132,9.0,11.0,63,0.00,,,0.00,Wunderground v.1.15,2013-01-28 17:40:00,
2013-01-28 10:50:00,50.3,38.2,29.82,SE,133,9.0,9.0,63,0.00,,,0.00,Wunderground v.1.15,2013-01-28 17:50:00,
2013-01-28 11:00:00,50.1,37.6,29.82,SSE,162,8.0,8.0,62,0.00,,,0.00,Wunderground v.1.15,2013-01-28 18:00:00,
2013-01-28 11:10:00,50.1,37.6,29.81,SSE,162,8.0,8.0,62,0.00,,,0.00,Wunderground v.1.15,2013-01-28 18:10:00,
2013-01-28 11:20:00,49.9,37.4,29.81,SSE,163,9.0,9.0,62,0.00,,,0.00,Wunderground v.1.15,2013-01-28 18:20:00,
2013-01-28 11:30:00,50.1,36.7,29.81,SSE,148,8.0,8.0,60,0.00,,,0.00,Wunderground v.1.15,2013-01-28 18:30:00,
2013-01-28 11:40:00,50.4,36.6,29.80,South,184,7.0,7.0,59,0.00,,,0.00,Wunderground v.1.15,2013-01-28 18:40:00,
2013-01-28 11:50:00,50.5,36.7,29.80,SSE,162,8.0,9.0,59,0.00,,,0.00,Wunderground v.1.15,2013-01-28 18:50:00,
2013-01-28 12:00:00,50.4,36.6,29.79,SSE,148,9.0,10.0,59,0.00,,,0.00,Wunderground v.1.15,2013-01-28 19:00:00,
2013-01-28 12:10:00,50.5,36.7,29.78,SE,138,8.0,9.0,59,0.00,,,0.00,Wunderground v.1.15,2013-01-28 19:10:00,
2013-01-28 12:20:00,50.9,36.6,29.77,SSE,161,9.0,10.0,58,0.00,,,0.00,Wunderground v.1.15,2013-01-28 19:20:00,
2013-01-28 12:30:00,51.2,36.5,29.76,SSE,153,8.0,8.0,57,0.00,,,0.00,Wunderground v.1.15,2013-01-28 19:30:00,
2013-01-28 12:40:00,51.3,35.7,29.76,SSE,160,9.0,10.0,55,0.00,,,0.00,Wunderground v.1.15,2013-01-28 19:40:00,
2013-01-28 12:50:00,51.2,35.6,29.76,SSW,196,12.0,12.0,55,0.00,,,0.00,Wunderground v.1.15,2013-01-28 19:50:00,
2013-01-28 13:00:00,51.8,35.7,29.75,South,172,9.0,15.0,54,0.00,,,0.00,Wunderground v.1.15,2013-01-28 20:00:00,
2013-01-28 13:10:00,52.2,35.6,29.75,SSW,192,10.0,10.0,53,0.00,,,0.00,Wunderground v.1.15,2013-01-28 20:10:00,
2013-01-28 13:20:00,52.6,35.5,29.74,South,175,10.0,10.0,52,0.00,,,0.00,Wunderground v.1.15,2013-01-28 20:20:00,
2013-01-28 13:30:00,53.1,35.4,29.74,SSW,195,7.0,8.0,51,0.00,,,0.00,Wunderground v.1.15,2013-01-28 20:30:00,
2013-01-28 13:40:00,53.3,35.1,29.73,SSW,198,10.0,10.0,50,0.00,,,0.00,Wunderground v.1.15,2013-01-28 20:40:00,
2013-01-28 13:50:00,54.2,34.9,29.73,SSW,213,9.0,9.0,48,0.00,,,0.00,Wunderground v.1.15,2013-01-28 20:50:00,
2013-01-28 14:00:00,55.8,34.8,29.72,SSW,213,8.0,8.0,45,0.00,,,0.00,Wunderground v.1.15,2013-01-28 21:00:00,
2013-01-28 14:10:00,54.8,32.7,29.72,SSW,207,11.0,11.0,43,0.00,,,0.00,Wunderground v.1.15,2013-01-28 21:10:00,
2013-01-28 14:20:00,54.9,33.4,29.71,SSW,205,9.0,9.0,44,0.00,,,0.00,Wunderground v.1.15,2013-01-28 21:20:00,
2013-01-28 14:30:00,54.9,31.6,29.70,SSW,196,8.0,17.0,41,0.00,,,0.00,Wunderground v.1.15,2013-01-28 21:30:00,
2013-01-28 14:40:00,56.1,29.5,29.70,South,190,13.0,22.0,36,0.00,,,0.00,Wunderground v.1.15,2013-01-28 21:40:00,
2013-01-28 14:50:00,55.7,29.1,29.71,SSW,192,13.0,13.0,36,0.00,,,0.00,Wunderground v.1.15,2013-01-28 21:50:00,
2013-01-28 15:00:00,55.3,27.4,29.71,WSW,239,14.0,14.0,34,0.00,,,0.00,Wunderground v.1.15,2013-01-28 22:00:00,
2013-01-28 15:10:00,54.8,29.0,29.71,SSW,201,13.0,13.0,37,0.00,,,0.00,Wunderground v.1.15,2013-01-28 22:10:00,
2013-01-28 15:20:00,54.8,29.7,29.71,SW,224,7.0,7.0,38,0.00,,,0.00,Wunderground v.1.15,2013-01-28 22:20:00,
2013-01-28 15:30:00,54.3,28.6,29.71,WSW,241,9.0,14.0,37,0.00,,,0.00,Wunderground v.1.15,2013-01-28 22:30:00,
2013-01-28 15:40:00,54.4,28.6,29.70,SSW,212,9.0,9.0,37,0.00,,,0.00,Wunderground v.1.15,2013-01-28 22:40:00,
2013-01-28 15:50:00,54.4,30.6,29.71,SW,236,9.0,15.0,40,0.00,,,0.00,Wunderground v.1.15,2013-01-28 22:50:00,
2013-01-28 16:00:00,53.8,29.4,29.70,SW,215,12.0,13.0,39,0.00,,,0.00,Wunderground v.1.15,2013-01-28 23:00:00,
2013-01-28 16:10:00,53.6,29.8,29.71,SW,223,9.0,9.0,40,0.00,,,0.00,Wunderground v.1.15,2013-01-28 23:10:00,
2013-01-28 16:20:00,53.9,29.5,29.70,SSW,196,8.0,11.0,39,0.00,,,0.00,Wunderground v.1.15,2013-01-28 23:20:00,
2013-01-28 16:30:00,54.2,29.1,29.71,SW,236,11.0,11.0,38,0.00,,,0.00,Wunderground v.1.15,2013-01-28 23:30:00,
2013-01-28 16:40:00,53.0,30.5,29.72,WSW,241,8.0,8.0,42,0.00,,,0.00,Wunderground v.1.15,2013-01-28 23:40:00,
2013-01-28 16:50:00,53.3,28.9,29.73,WSW,254,9.0,11.0,39,0.00,,,0.00,Wunderground v.1.15,2013-01-28 23:50:00,
2013-01-28 17:00:00,50.5,31.5,29.74,SW,224,13.0,14.0,48,0.00,,,0.00,Wunderground v.1.15,2013-01-29 00:00:00,
2013-01-28 17:10:00,49.0,32.6,29.74,West,268,9.0,9.0,53,0.00,,,0.00,Wunderground v.1.15,2013-01-29 00:10:00,
2013-01-28 17:20:00,48.3,32.9,29.74,WSW,245,7.0,8.0,55,0.00,,,0.00,Wunderground v.1.15,2013-01-29 00:20:00,
2013-01-28 17:30:00,47.9,32.9,29.74,WSW,253,7.0,7.0,56,0.00,,,0.00,Wunderground v.1.15,2013-01-29 00:30:00,
2013-01-28 17:40:00,47.7,33.2,29.75,WSW,258,6.0,6.0,57,0.00,,,0.00,Wunderground v.1.15,2013-01-29 00:40:00,
2013-01-28 17:50:00,47.6,33.1,29.76,WSW,242,7.0,7.0,57,0.00,,,0.00,Wunderground v.1.15,2013-01-29 00:50:00,
2013-01-28 18:00:00,47.1,33.1,29.77,WSW,248,8.0,9.0,58,0.00,,,0.00,Wunderground v.1.15,2013-01-29 01:00:00,
2013-01-28 18:10:00,45.4,32.7,29.77,WNW,286,7.0,10.0,61,0.00,,,0.00,Wunderground v.1.15,2013-01-29 01:10:00,
2013-01-28 18:20:00,44.0,33.0,29.77,WNW,285,6.0,6.0,65,0.00,,,0.00,Wunderground v.1.15,2013-01-29 01:20:00,
2013-01-28 18:30:00,43.3,32.7,29.78,WSW,254,5.0,5.0,66,0.00,,,0.00,Wunderground v.1.15,2013-01-29 01:30:00,
2013-01-28 18:40:00,42.9,32.3,29.78,WSW,245,3.0,8.0,66,0.00,,,0.00,Wunderground v.1.15,2013-01-29 01:40:00,
2013-01-28 18:50:00,42.9,31.9,29.78,WSW,257,3.0,3.0,65,0.00,,,0.00,Wunderground v.1.15,2013-01-29 01:50:00,
2013-01-28 19:00:00,42.8,31.5,29.79,WSW,249,3.0,8.0,64,0.00,,,0.00,Wunderground v.1.15,2013-01-29 02:00:00,
2013-01-28 19:10:00,43.3,30.7,29.79,WSW,240,5.0,8.0,61,0.00,,,0.00,Wunderground v.1.15,2013-01-29 02:10:00,
2013-01-28 19:20:00,43.9,30.1,29.80,WSW,249,7.0,7.0,58,0.00,,,0.00,Wunderground v.1.15,2013-01-29 02:20:00,
2013-01-28 19:30:00,44.2,29.0,29.80,WSW,244,6.0,6.0,55,0.00,,,0.00,Wunderground v.1.15,2013-01-29 02:30:00,
2013-01-28 19:40:00,44.3,28.2,29.80,WSW,244,8.0,10.0,53,0.00,,,0.00,Wunderground v.1.15,2013-01-29 02:40:00,
2013-01-28 19:50:00,44.3,27.8,29.81,WSW,255,7.0,7.0,52,0.00,,,0.00,Wunderground v.1.15,2013-01-29 02:50:00,
2013-01-28 20:00:00,44.2,27.2,29.81,WSW,238,5.0,8.0,51,0.00,,,0.00,Wunderground v.1.15,2013-01-29 03:00:00,
2013-01-28 20:10:00,44.2,27.2,29.81,WSW,246,6.0,6.0,51,0.00,,,0.00,Wunderground v.1.15,2013-01-29 03:10:00,
2013-01-28 20:20:00,43.9,26.4,29.81,WSW,250,6.0,6.0,50,0.00,,,0.00,Wunderground v.1.15,2013-01-29 03:20:00,
2013-01-28 20:30:00,43.6,26.2,29.81,WSW,246,6.0,6.0,50,0.00,,,0.00,Wunderground v.1.15,2013-01-29 03:30:00,
2013-01-28 20:40:00,43.4,25.5,29.81,WSW,242,6.0,8.0,49,0.00,,,0.00,Wunderground v.1.15,2013-01-29 03:40:00,
2013-01-28 20:50:00,43.1,25.2,29.81,WSW,247,4.0,8.0,49,0.00,,,0.00,Wunderground v.1.15,2013-01-29 03:50:00,
2013-01-28 21:00:00,42.9,24.5,29.81,WSW,252,5.0,5.0,48,0.00,,,0.00,Wunderground v.1.15,2013-01-29 04:00:00,
2013-01-28 21:10:00,42.7,24.4,29.81,SW,234,6.0,8.0,48,0.00,,,0.00,Wunderground v.1.15,2013-01-29 04:10:00,
2013-01-28 21:20:00,42.4,24.6,29.82,West,260,6.0,8.0,49,0.00,,,0.00,Wunderground v.1.15,2013-01-29 04:20:00,
2013-01-28 21:30:00,42.0,25.2,29.82,WSW,248,6.0,6.0,51,0.00,,,0.00,Wunderground v.1.15,2013-01-29 04:30:00,
2013-01-28 21:40:00,41.6,25.3,29.83,SW,236,7.0,7.0,52,0.00,,,0.00,Wunderground v.1.15,2013-01-29 04:40:00,
2013-01-28 21:50:00,41.3,25.9,29.83,WSW,251,5.0,10.0,54,0.00,,,0.00,Wunderground v.1.15,2013-01-29 04:50:00,
2013-01-28 22:10:00,41.1,24.3,29.83,WSW,250,4.0,4.0,51,0.00,,,0.00,Wunderground v.1.15,2013-01-29 05:10:00,
2013-01-28 22:20:00,40.9,23.2,29.83,WSW,243,4.0,8.0,49,0.00,,,0.00,Wunderground v.1.15,2013-01-29 05:20:00,
2013-01-28 22:30:00,40.4,22.7,29.83,SW,236,6.0,6.0,49,0.00,,,0.00,Wunderground v.1.15,2013-01-29 05:30:00,
2013-01-28 22:40:00,40.0,21.9,29.83,West,262,8.0,9.0,48,0.00,,,0.00,Wunderground v.1.15,2013-01-29 05:40:00,
2013-01-28 22:50:00,39.6,20.0,29.83,WSW,250,8.0,8.0,45,0.00,,,0.00,Wunderground v.1.15,2013-01-29 05:50:00,
2013-01-28 23:00:00,39.3,19.7,29.83,WSW,242,6.0,10.0,45,0.00,,,0.00,Wunderground v.1.15,2013-01-29 06:00:00,
2013-01-28 23:10:00,39.2,20.1,29.83,SW,215,4.0,8.0,46,0.00,,,0.00,Wunderground v.1.15,2013-01-29 06:10:00,
2013-01-28 23:20:00,38.8,18.7,29.83,SW,217,4.0,4.0,44,0.00,,,0.00,Wunderground v.1.15,2013-01-29 06:20:00,
2013-01-28 23:30:00,38.6,18.0,29.83,SW,230,5.0,5.0,43,0.00,,,0.00,Wunderground v.1.15,2013-01-29 06:30:00,
2013-01-28 23:40:00,38.4,18.9,29.83,SSW,200,4.0,4.0,45,0.00,,,0.00,Wunderground v.1.15,2013-01-29 06:40:00,
2013-01-28 23:50:00,38.4,18.9,29.83,SSW,207,5.0,8.0,45,0.00,,,0.00,Wunderground v.1.15,2013-01-29 06:50:00,